This is the latest recevied weather packets stored in our database for station/object KD7CIH. If no packets are shown the sender has not sent any weather packets the latest 10 day(s).
| Time | Temp. | Humidity | Pressure | Rain* | Wind** | Luminosity | Snow |
|---|---|---|---|---|---|---|---|
| 1777529765 | 3.33° C | 72% | 1015.3 hPa | 0 mm | - | - | - |
| 1777529467 | 3.33° C | 72% | 1015.4 hPa | 0 mm | - | - | - |
| 1777529166 | 3.33° C | 72% | 1015.3 hPa | 0 mm | - | - | - |
| 1777528866 | 3.33° C | 73% | 1015.3 hPa | 0 mm | - | - | - |
| 1777528566 | 3.89° C | 73% | 1015.2 hPa | 0 mm | - | - | - |
| 1777528267 | 3.89° C | 72% | 1015.2 hPa | 0 mm | - | - | - |
| 1777527966 | 4.44° C | 70% | 1015.2 hPa | 0 mm | - | - | - |
| 1777527665 | 4.44° C | 68% | 1015.3 hPa | 0 mm | - | - | - |
| 1777527365 | 4.44° C | 67% | 1015.2 hPa | 0 mm | - | - | - |
| 1777527068 | 5° C | 64% | 1015.2 hPa | 0 mm | - | - | - |
| 1777526766 | 5° C | 62% | 1015.2 hPa | 0 mm | - | - | - |
| 1777526466 | 5° C | 61% | 1015.1 hPa | 0 mm | - | - | - |
| 1777526166 | 5.56° C | 59% | 1015.1 hPa | 0 mm | - | - | - |
| 1777525867 | 5.56° C | 59% | 1015.1 hPa | 0 mm | - | - | - |
| 1777525565 | 5.56° C | 58% | 1015.1 hPa | 0 mm | - | - | - |
| 1777525266 | 5.56° C | 58% | 1014.9 hPa | 0 mm | - | - | - |
| 1777524966 | 5.56° C | 56% | 1014.9 hPa | 0 mm | - | - | - |
| 1777524666 | 6.11° C | 56% | 1014.9 hPa | 0 mm | - | - | - |
| 1777524493 | 6.11° C | 54% | 1014.9 hPa | 0 mm | - | - | - |
| 1777524065 | 6.11° C | 53% | 1014.8 hPa | 0 mm | - | - | - |
| 1777523895 | 6.67° C | 50% | 1014.7 hPa | 0 mm | - | - | - |
| 1777523468 | 6.11° C | 51% | 1014.7 hPa | 0 mm | - | - | - |
| 1777523166 | 6.11° C | 51% | 1014.6 hPa | 0 mm | - | - | - |
| 1777522865 | 6.11° C | 51% | 1014.7 hPa | 0 mm | - | - | - |
| 1777522567 | 6.11° C | 50% | 1014.7 hPa | 0 mm | - | - | - |
* Rain latest hour (hover to see other rain measurements)
** Current wind speed in m/s (hover to see current wind gust speed)